Time,TemperatureF,DewpointF,PressureIn,WindDirection,WindDirectionDegrees,WindSpeedMPH,WindSpeedGustMPH,Humidity,HourlyPrecipIn,Conditions,Clouds,dailyrainin,SoftwareType,DateUTC
2015-03-28 00:02:00,30.8,26.0,27.69,SE,135,12.0,12.0,83,0.00,,,0.00,Rainwise IP-100,2015-03-28 05:02:00,
2015-03-28 00:07:00,30.8,26.0,27.69,ESE,112,6.0,12.0,83,0.00,,,0.00,Rainwise IP-100,2015-03-28 05:07:00,
2015-03-28 00:13:00,30.8,26.0,27.70,ESE,112,7.0,11.0,84,0.00,,,0.00,Rainwise IP-100,2015-03-28 05:13:00,
2015-03-28 00:18:00,30.8,26.0,27.70,SE,135,6.0,9.0,84,0.00,,,0.00,Rainwise IP-100,2015-03-28 05:18:00,
2015-03-28 00:23:00,30.7,26.0,27.70,ESE,112,7.0,9.0,84,0.00,,,0.00,Rainwise IP-100,2015-03-28 05:23:00,
2015-03-28 00:28:00,30.7,26.0,27.69,ESE,112,6.0,9.0,84,0.00,,,0.00,Rainwise IP-100,2015-03-28 05:28:00,
2015-03-28 00:33:00,30.7,26.0,27.69,East,90,7.0,9.0,84,0.00,,,0.00,Rainwise IP-100,2015-03-28 05:33:00,
2015-03-28 00:38:00,30.6,26.0,27.69,ESE,112,9.0,10.0,85,0.00,,,0.00,Rainwise IP-100,2015-03-28 05:38:00,
2015-03-28 00:43:00,30.5,28.0,27.69,ESE,112,7.0,10.0,87,0.00,,,0.00,Rainwise IP-100,2015-03-28 05:43:00,
2015-03-28 00:48:00,30.4,28.0,27.69,ESE,112,6.0,8.0,88,0.00,,,0.00,Rainwise IP-100,2015-03-28 05:48:00,
2015-03-28 00:53:00,30.2,28.0,27.69,ESE,112,7.0,9.0,89,0.00,,,0.00,Rainwise IP-100,2015-03-28 05:53:00,
2015-03-28 00:58:00,30.1,28.0,27.69,ESE,112,8.0,10.0,90,0.00,,,0.00,Rainwise IP-100,2015-03-28 05:58:00,
2015-03-28 01:03:00,30.0,28.0,27.69,ESE,112,6.0,9.0,91,0.00,,,0.00,Rainwise IP-100,2015-03-28 06:03:00,
2015-03-28 01:08:00,29.9,29.0,27.69,ESE,112,7.0,9.0,92,0.00,,,0.00,Rainwise IP-100,2015-03-28 06:08:00,
2015-03-28 01:14:00,29.9,29.0,27.69,East,90,4.0,9.0,92,0.00,,,0.00,Rainwise IP-100,2015-03-28 06:14:00,
2015-03-28 01:19:00,29.8,29.0,27.69,SE,135,7.0,10.0,93,0.00,,,0.00,Rainwise IP-100,2015-03-28 06:19:00,
2015-03-28 01:24:00,29.8,29.0,27.69,ESE,112,9.0,9.0,93,0.00,,,0.00,Rainwise IP-100,2015-03-28 06:24:00,
2015-03-28 01:29:00,29.8,29.0,27.69,ESE,112,8.0,11.0,93,0.00,,,0.00,Rainwise IP-100,2015-03-28 06:29:00,
2015-03-28 01:34:00,29.8,29.0,27.69,ESE,112,7.0,9.0,94,0.00,,,0.00,Rainwise IP-100,2015-03-28 06:34:00,
2015-03-28 01:39:00,29.8,29.0,27.69,ESE,112,7.0,9.0,94,0.00,,,0.00,Rainwise IP-100,2015-03-28 06:39:00,
2015-03-28 01:44:00,29.8,29.0,27.68,East,90,6.0,10.0,94,0.00,,,0.00,Rainwise IP-100,2015-03-28 06:44:00,
2015-03-28 01:49:00,29.8,29.0,27.68,East,90,8.0,11.0,94,0.00,,,0.00,Rainwise IP-100,2015-03-28 06:49:00,
2015-03-28 01:54:00,29.8,29.0,27.69,ESE,112,6.0,11.0,94,0.00,,,0.00,Rainwise IP-100,2015-03-28 06:54:00,
2015-03-28 01:59:00,29.8,29.0,27.68,ESE,112,9.0,12.0,94,0.00,,,0.00,Rainwise IP-100,2015-03-28 06:59:00,
2015-03-28 02:04:00,29.8,29.0,27.68,ESE,112,9.0,13.0,94,0.00,,,0.00,Rainwise IP-100,2015-03-28 07:04:00,
2015-03-28 02:09:00,29.7,29.0,27.69,ESE,112,10.0,14.0,94,0.00,,,0.00,Rainwise IP-100,2015-03-28 07:09:00,
2015-03-28 02:15:00,29.8,29.0,27.69,ESE,112,11.0,11.0,94,0.00,,,0.00,Rainwise IP-100,2015-03-28 07:15:00,
2015-03-28 02:20:00,29.7,29.0,27.69,SE,135,9.0,12.0,94,0.00,,,0.00,Rainwise IP-100,2015-03-28 07:20:00,
2015-03-28 02:25:00,29.7,29.0,27.69,ESE,112,9.0,11.0,94,0.00,,,0.00,Rainwise IP-100,2015-03-28 07:25:00,
2015-03-28 02:30:00,29.7,29.0,27.69,SE,135,5.0,11.0,94,0.00,,,0.00,Rainwise IP-100,2015-03-28 07:30:00,
2015-03-28 02:35:00,29.6,29.0,27.69,SE,135,8.0,11.0,94,0.00,,,0.00,Rainwise IP-100,2015-03-28 07:35:00,
2015-03-28 02:40:00,29.6,29.0,27.68,ESE,112,6.0,11.0,94,0.00,,,0.00,Rainwise IP-100,2015-03-28 07:40:00,
2015-03-28 02:45:00,29.6,29.0,27.69,SE,135,9.0,11.0,94,0.00,,,0.00,Rainwise IP-100,2015-03-28 07:45:00,
2015-03-28 02:50:00,29.7,29.0,27.68,SE,135,8.0,12.0,94,0.00,,,0.00,Rainwise IP-100,2015-03-28 07:50:00,
2015-03-28 02:55:00,29.7,29.0,27.68,ESE,112,9.0,12.0,94,0.00,,,0.00,Rainwise IP-100,2015-03-28 07:55:00,
2015-03-28 03:00:00,29.7,29.0,27.68,ESE,112,8.0,12.0,94,0.00,,,0.00,Rainwise IP-100,2015-03-28 08:00:00,
2015-03-28 03:05:00,29.6,29.0,27.68,ESE,112,7.0,10.0,94,0.00,,,0.00,Rainwise IP-100,2015-03-28 08:05:00,
2015-03-28 03:10:00,29.6,29.0,27.68,ESE,112,8.0,10.0,94,0.00,,,0.00,Rainwise IP-100,2015-03-28 08:10:00,
2015-03-28 03:16:00,29.6,29.0,27.68,East,90,9.0,11.0,94,0.00,,,0.00,Rainwise IP-100,2015-03-28 08:16:00,
2015-03-28 03:21:00,29.6,29.0,27.68,East,90,10.0,12.0,94,0.00,,,0.00,Rainwise IP-100,2015-03-28 08:21:00,
2015-03-28 03:26:00,29.6,29.0,27.68,ESE,112,11.0,12.0,94,0.00,,,0.00,Rainwise IP-100,2015-03-28 08:26:00,
2015-03-28 03:31:00,29.6,29.0,27.68,ESE,112,9.0,12.0,94,0.00,,,0.00,Rainwise IP-100,2015-03-28 08:31:00,
2015-03-28 03:36:00,29.8,29.0,27.68,ESE,112,7.0,12.0,94,0.00,,,0.00,Rainwise IP-100,2015-03-28 08:36:00,
2015-03-28 03:41:00,29.9,29.0,27.68,ESE,112,7.0,12.0,94,0.00,,,0.00,Rainwise IP-100,2015-03-28 08:41:00,
2015-03-28 03:46:00,29.9,29.0,27.68,ESE,112,11.0,12.0,94,0.00,,,0.00,Rainwise IP-100,2015-03-28 08:46:00,
2015-03-28 03:51:00,29.9,29.0,27.68,ESE,112,9.0,11.0,94,0.00,,,0.00,Rainwise IP-100,2015-03-28 08:51:00,
2015-03-28 03:56:00,29.9,29.0,27.68,ESE,112,9.0,11.0,94,0.00,,,0.00,Rainwise IP-100,2015-03-28 08:56:00,
2015-03-28 04:01:00,29.9,29.0,27.68,ESE,112,10.0,11.0,94,0.00,,,0.00,Rainwise IP-100,2015-03-28 09:01:00,
2015-03-28 04:06:00,29.9,29.0,27.68,ESE,112,10.0,11.0,94,0.00,,,0.00,Rainwise IP-100,2015-03-28 09:06:00,
2015-03-28 04:11:00,30.0,29.0,27.68,SE,135,11.0,11.0,94,0.00,,,0.00,Rainwise IP-100,2015-03-28 09:11:00,
2015-03-28 04:17:00,30.1,29.0,27.68,ESE,112,7.0,12.0,94,0.00,,,0.00,Rainwise IP-100,2015-03-28 09:17:00,
2015-03-28 04:22:00,30.0,29.0,27.68,ESE,112,11.0,11.0,94,0.00,,,0.00,Rainwise IP-100,2015-03-28 09:22:00,
2015-03-28 04:27:00,30.1,29.0,27.68,ESE,112,9.0,11.0,94,0.00,,,0.00,Rainwise IP-100,2015-03-28 09:27:00,
2015-03-28 04:32:00,30.1,29.0,27.68,ESE,112,9.0,11.0,94,0.00,,,0.00,Rainwise IP-100,2015-03-28 09:32:00,
2015-03-28 04:37:00,30.1,29.0,27.68,ESE,112,10.0,12.0,94,0.00,,,0.00,Rainwise IP-100,2015-03-28 09:37:00,
2015-03-28 04:42:00,29.9,29.0,27.68,ESE,112,9.0,12.0,94,0.00,,,0.00,Rainwise IP-100,2015-03-28 09:42:00,
2015-03-28 04:47:00,30.0,29.0,27.69,SE,135,8.0,11.0,94,0.00,,,0.00,Rainwise IP-100,2015-03-28 09:47:00,
2015-03-28 04:52:00,30.1,29.0,27.69,SE,135,7.0,12.0,94,0.00,,,0.00,Rainwise IP-100,2015-03-28 09:52:00,
2015-03-28 04:57:00,30.0,29.0,27.69,SE,135,10.0,11.0,94,0.00,,,0.00,Rainwise IP-100,2015-03-28 09:57:00,
2015-03-28 05:02:00,30.0,29.0,27.69,SE,135,7.0,11.0,94,0.00,,,0.00,Rainwise IP-100,2015-03-28 10:02:00,
2015-03-28 05:07:00,30.1,29.0,27.69,SE,135,6.0,12.0,94,0.00,,,0.00,Rainwise IP-100,2015-03-28 10:07:00,
2015-03-28 05:12:00,30.0,29.0,27.69,ESE,112,10.0,10.0,94,0.00,,,0.00,Rainwise IP-100,2015-03-28 10:12:00,
2015-03-28 05:18:00,30.0,29.0,27.69,ESE,112,6.0,11.0,94,0.00,,,0.00,Rainwise IP-100,2015-03-28 10:18:00,
2015-03-28 05:23:00,30.0,29.0,27.69,ESE,112,6.0,11.0,94,0.00,,,0.00,Rainwise IP-100,2015-03-28 10:23:00,
2015-03-28 05:28:00,30.0,29.0,27.69,ESE,112,8.0,11.0,94,0.00,,,0.00,Rainwise IP-100,2015-03-28 10:28:00,
2015-03-28 05:33:00,30.0,29.0,27.69,ESE,112,8.0,10.0,94,0.00,,,0.00,Rainwise IP-100,2015-03-28 10:33:00,
2015-03-28 05:38:00,30.0,29.0,27.69,ESE,112,6.0,11.0,94,0.00,,,0.00,Rainwise IP-100,2015-03-28 10:38:00,
2015-03-28 05:43:00,30.0,29.0,27.69,SE,135,6.0,12.0,94,0.00,,,0.00,Rainwise IP-100,2015-03-28 10:43:00,
2015-03-28 05:48:00,30.1,29.0,27.69,ESE,112,7.0,11.0,94,0.00,,,0.00,Rainwise IP-100,2015-03-28 10:48:00,
2015-03-28 05:53:00,30.1,29.0,27.69,ESE,112,9.0,11.0,94,0.00,,,0.00,Rainwise IP-100,2015-03-28 10:53:00,
2015-03-28 05:58:00,30.1,29.0,27.69,SE,135,9.0,11.0,94,0.00,,,0.00,Rainwise IP-100,2015-03-28 10:58:00,
2015-03-28 06:03:00,30.1,29.0,27.69,ESE,112,8.0,11.0,94,0.00,,,0.00,Rainwise IP-100,2015-03-28 11:03:00,
2015-03-28 06:08:00,30.0,29.0,27.69,SE,135,9.0,11.0,94,0.00,,,0.00,Rainwise IP-100,2015-03-28 11:08:00,
2015-03-28 06:13:00,30.0,29.0,27.69,ESE,112,9.0,11.0,94,0.00,,,0.00,Rainwise IP-100,2015-03-28 11:13:00,
2015-03-28 06:19:00,29.9,29.0,27.70,ESE,112,5.0,11.0,94,0.00,,,0.00,Rainwise IP-100,2015-03-28 11:19:00,
2015-03-28 06:24:00,29.9,29.0,27.70,SE,135,7.0,9.0,94,0.00,,,0.00,Rainwise IP-100,2015-03-28 11:24:00,
2015-03-28 06:29:00,29.9,29.0,27.70,ESE,112,6.0,10.0,94,0.00,,,0.00,Rainwise IP-100,2015-03-28 11:29:00,
2015-03-28 06:34:00,29.8,29.0,27.70,ESE,112,6.0,9.0,94,0.00,,,0.00,Rainwise IP-100,2015-03-28 11:34:00,
2015-03-28 06:39:00,29.7,29.0,27.70,ESE,112,7.0,10.0,94,0.00,,,0.00,Rainwise IP-100,2015-03-28 11:39:00,
2015-03-28 06:44:00,29.8,29.0,27.70,SE,135,8.0,11.0,94,0.00,,,0.00,Rainwise IP-100,2015-03-28 11:44:00,
2015-03-28 06:49:00,29.7,29.0,27.71,ESE,112,8.0,11.0,94,0.00,,,0.00,Rainwise IP-100,2015-03-28 11:49:00,
2015-03-28 06:54:00,29.6,29.0,27.70,ESE,112,7.0,10.0,94,0.00,,,0.00,Rainwise IP-100,2015-03-28 11:54:00,
2015-03-28 06:59:00,29.5,29.0,27.70,ESE,112,7.0,9.0,94,0.00,,,0.00,Rainwise IP-100,2015-03-28 11:59:00,
2015-03-28 07:04:00,29.4,28.0,27.71,ESE,112,5.0,9.0,94,0.00,,,0.00,Rainwise IP-100,2015-03-28 12:04:00,
2015-03-28 07:09:00,29.4,28.0,27.71,SE,135,7.0,9.0,94,0.00,,,0.00,Rainwise IP-100,2015-03-28 12:09:00,
2015-03-28 07:14:00,29.4,28.0,27.71,ESE,112,6.0,9.0,94,0.00,,,0.00,Rainwise IP-100,2015-03-28 12:14:00,
2015-03-28 07:20:00,29.3,28.0,27.71,ESE,112,7.0,9.0,94,0.00,,,0.00,Rainwise IP-100,2015-03-28 12:20:00,
2015-03-28 07:25:00,29.4,28.0,27.71,SE,135,7.0,9.0,94,0.00,,,0.00,Rainwise IP-100,2015-03-28 12:25:00,
2015-03-28 07:30:00,29.4,28.0,27.71,ESE,112,7.0,9.0,94,0.00,,,0.00,Rainwise IP-100,2015-03-28 12:30:00,
2015-03-28 07:35:00,29.5,29.0,27.71,SE,135,9.0,10.0,94,0.00,,,0.00,Rainwise IP-100,2015-03-28 12:35:00,
2015-03-28 07:40:00,29.6,29.0,27.71,ESE,112,7.0,11.0,94,0.00,,,0.00,Rainwise IP-100,2015-03-28 12:40:00,
2015-03-28 07:45:00,29.7,29.0,27.71,SE,135,9.0,12.0,94,0.00,,,0.00,Rainwise IP-100,2015-03-28 12:45:00,
2015-03-28 07:50:00,29.8,29.0,27.71,SE,135,8.0,11.0,94,0.00,,,0.00,Rainwise IP-100,2015-03-28 12:50:00,
2015-03-28 07:55:00,29.9,29.0,27.71,SE,135,9.0,12.0,94,0.00,,,0.00,Rainwise IP-100,2015-03-28 12:55:00,
2015-03-28 08:00:00,30.0,29.0,27.72,ESE,112,7.0,11.0,94,0.00,,,0.00,Rainwise IP-100,2015-03-28 13:00:00,
2015-03-28 08:05:00,30.1,29.0,27.71,SE,135,10.0,12.0,94,0.00,,,0.00,Rainwise IP-100,2015-03-28 13:05:00,
2015-03-28 08:10:00,30.2,29.0,27.72,ESE,112,9.0,12.0,94,0.00,,,0.00,Rainwise IP-100,2015-03-28 13:10:00,
2015-03-28 08:15:00,30.4,29.0,27.71,ESE,112,11.0,12.0,94,0.00,,,0.00,Rainwise IP-100,2015-03-28 13:15:00,
2015-03-28 08:21:00,30.7,29.0,27.72,SE,135,11.0,13.0,94,0.00,,,0.00,Rainwise IP-100,2015-03-28 13:21:00,
2015-03-28 08:26:00,30.9,29.0,27.72,SE,135,14.0,14.0,94,0.00,,,0.00,Rainwise IP-100,2015-03-28 13:26:00,
2015-03-28 08:31:00,30.9,29.0,27.73,ESE,112,9.0,14.0,92,0.00,,,0.00,Rainwise IP-100,2015-03-28 13:31:00,
2015-03-28 08:36:00,31.2,29.0,27.73,ESE,112,11.0,14.0,93,0.00,,,0.00,Rainwise IP-100,2015-03-28 13:36:00,
2015-03-28 08:41:00,31.3,28.0,27.73,ESE,112,9.0,15.0,91,0.00,,,0.00,Rainwise IP-100,2015-03-28 13:41:00,
2015-03-28 08:46:00,31.5,29.0,27.73,SE,135,13.0,15.0,91,0.00,,,0.00,Rainwise IP-100,2015-03-28 13:46:00,
2015-03-28 08:51:00,31.8,29.0,27.73,ESE,112,9.0,14.0,90,0.00,,,0.00,Rainwise IP-100,2015-03-28 13:51:00,
2015-03-28 08:56:00,32.4,29.0,27.73,SE,135,8.0,14.0,89,0.00,,,0.00,Rainwise IP-100,2015-03-28 13:56:00,
2015-03-28 09:01:00,32.5,31.0,27.74,SE,135,14.0,15.0,87,0.00,,,0.00,Rainwise IP-100,2015-03-28 14:01:00,
2015-03-28 09:06:00,32.6,29.0,27.73,SE,135,14.0,16.0,86,0.00,,,0.00,Rainwise IP-100,2015-03-28 14:06:00,
2015-03-28 09:11:00,32.9,29.0,27.74,SE,135,12.0,16.0,86,0.00,,,0.00,Rainwise IP-100,2015-03-28 14:11:00,
2015-03-28 09:16:00,33.2,29.0,27.73,SE,135,13.0,16.0,85,0.00,,,0.00,Rainwise IP-100,2015-03-28 14:16:00,
2015-03-28 09:22:00,33.4,29.0,27.74,SE,135,16.0,16.0,85,0.00,,,0.00,Rainwise IP-100,2015-03-28 14:22:00,
2015-03-28 09:27:00,33.7,31.0,27.74,SE,135,10.0,17.0,83,0.00,,,0.00,Rainwise IP-100,2015-03-28 14:27:00,
2015-03-28 09:32:00,34.1,29.0,27.75,SE,135,9.0,18.0,82,0.00,,,0.00,Rainwise IP-100,2015-03-28 14:32:00,
2015-03-28 09:37:00,34.3,29.0,27.74,SE,135,14.0,18.0,78,0.00,,,0.00,Rainwise IP-100,2015-03-28 14:37:00,
2015-03-28 09:42:00,34.7,28.0,27.75,SE,135,16.0,21.0,77,0.00,,,0.00,Rainwise IP-100,2015-03-28 14:42:00,
2015-03-28 09:47:00,34.7,28.0,27.75,SE,135,12.0,19.0,75,0.00,,,0.00,Rainwise IP-100,2015-03-28 14:47:00,
2015-03-28 09:52:00,35.4,28.0,27.75,SE,135,14.0,21.0,74,0.00,,,0.00,Rainwise IP-100,2015-03-28 14:52:00,
2015-03-28 09:57:00,35.7,28.0,27.76,SE,135,17.0,19.0,73,0.00,,,0.00,Rainwise IP-100,2015-03-28 14:57:00,
2015-03-28 10:02:00,35.9,28.0,27.76,SE,135,14.0,18.0,70,0.00,,,0.00,Rainwise IP-100,2015-03-28 15:02:00,
2015-03-28 10:07:00,36.2,26.0,27.77,SE,135,16.0,21.0,68,0.00,,,0.00,Rainwise IP-100,2015-03-28 15:07:00,
2015-03-28 10:12:00,36.0,26.0,27.77,SE,135,19.0,22.0,67,0.00,,,0.00,Rainwise IP-100,2015-03-28 15:12:00,
2015-03-28 10:18:00,36.4,26.0,27.77,SE,135,17.0,22.0,66,0.00,,,0.00,Rainwise IP-100,2015-03-28 15:18:00,
2015-03-28 10:23:00,36.5,28.0,27.77,SE,135,18.0,21.0,67,0.00,,,0.00,Rainwise IP-100,2015-03-28 15:23:00,
2015-03-28 10:28:00,37.2,28.0,27.77,SE,135,19.0,21.0,67,0.00,,,0.00,Rainwise IP-100,2015-03-28 15:28:00,
2015-03-28 10:33:00,37.3,28.0,27.78,SE,135,14.0,19.0,66,0.00,,,0.00,Rainwise IP-100,2015-03-28 15:33:00,
2015-03-28 10:38:00,37.5,28.0,27.77,SE,135,19.0,21.0,65,0.00,,,0.00,Rainwise IP-100,2015-03-28 15:38:00,
2015-03-28 10:43:00,37.6,28.0,27.78,ESE,112,12.0,20.0,65,0.00,,,0.00,Rainwise IP-100,2015-03-28 15:43:00,
2015-03-28 10:48:00,37.8,28.0,27.78,SE,135,19.0,21.0,64,0.00,,,0.00,Rainwise IP-100,2015-03-28 15:48:00,
2015-03-28 10:53:00,37.9,28.0,27.78,SE,135,16.0,19.0,64,0.00,,,0.00,Rainwise IP-100,2015-03-28 15:53:00,
2015-03-28 10:58:00,38.2,26.0,27.78,SE,135,17.0,19.0,63,0.00,,,0.00,Rainwise IP-100,2015-03-28 15:58:00,
2015-03-28 11:03:00,38.9,28.0,27.78,SE,135,15.0,20.0,64,0.00,,,0.00,Rainwise IP-100,2015-03-28 16:03:00,
2015-03-28 11:08:00,39.1,28.0,27.78,SE,135,14.0,20.0,62,0.00,,,0.00,Rainwise IP-100,2015-03-28 16:08:00,
2015-03-28 11:13:00,39.3,28.0,27.79,SE,135,16.0,19.0,62,0.00,,,0.00,Rainwise IP-100,2015-03-28 16:13:00,
2015-03-28 11:18:00,39.4,28.0,27.79,SE,135,16.0,21.0,61,0.00,,,0.00,Rainwise IP-100,2015-03-28 16:18:00,
2015-03-28 11:24:00,39.9,28.0,27.79,SSE,157,16.0,19.0,61,0.00,,,0.00,Rainwise IP-100,2015-03-28 16:24:00,
2015-03-28 11:29:00,40.0,28.0,27.78,SE,135,12.0,22.0,60,0.00,,,0.00,Rainwise IP-100,2015-03-28 16:29:00,
2015-03-28 11:34:00,40.2,28.0,27.78,SE,135,12.0,21.0,60,0.00,,,0.00,Rainwise IP-100,2015-03-28 16:34:00,
2015-03-28 11:39:00,40.9,28.0,27.79,SE,135,12.0,22.0,58,0.00,,,0.00,Rainwise IP-100,2015-03-28 16:39:00,
2015-03-28 11:44:00,40.9,28.0,27.79,SE,135,19.0,20.0,57,0.00,,,0.00,Rainwise IP-100,2015-03-28 16:44:00,
2015-03-28 11:49:00,40.7,28.0,27.79,SE,135,13.0,22.0,58,0.00,,,0.00,Rainwise IP-100,2015-03-28 16:49:00,
2015-03-28 11:54:00,41.6,29.0,27.79,SE,135,12.0,17.0,59,0.00,,,0.00,Rainwise IP-100,2015-03-28 16:54:00,
2015-03-28 11:59:00,40.8,28.0,27.79,SSE,157,13.0,21.0,57,0.00,,,0.00,Rainwise IP-100,2015-03-28 16:59:00,
2015-03-28 12:04:00,41.2,28.0,27.79,SE,135,11.0,23.0,56,0.00,,,0.00,Rainwise IP-100,2015-03-28 17:04:00,
2015-03-28 12:09:00,42.2,28.0,27.79,SE,135,18.0,22.0,55,0.00,,,0.00,Rainwise IP-100,2015-03-28 17:09:00,
2015-03-28 12:14:00,41.6,28.0,27.79,SE,135,16.0,21.0,56,0.00,,,0.00,Rainwise IP-100,2015-03-28 17:14:00,
2015-03-28 12:19:00,41.9,28.0,27.79,SE,135,14.0,20.0,54,0.00,,,0.00,Rainwise IP-100,2015-03-28 17:19:00,
2015-03-28 12:25:00,42.2,28.0,27.78,SE,135,12.0,26.0,54,0.00,,,0.00,Rainwise IP-100,2015-03-28 17:25:00,
2015-03-28 12:30:00,42.9,28.0,27.79,SE,135,16.0,26.0,54,0.00,,,0.00,Rainwise IP-100,2015-03-28 17:30:00,
2015-03-28 12:35:00,42.3,28.0,27.79,SE,135,16.0,21.0,54,0.00,,,0.00,Rainwise IP-100,2015-03-28 17:35:00,
2015-03-28 12:40:00,42.5,28.0,27.78,SE,135,12.0,23.0,52,0.00,,,0.00,Rainwise IP-100,2015-03-28 17:40:00,
2015-03-28 12:45:00,43.2,28.0,27.78,ESE,112,10.0,22.0,54,0.00,,,0.00,Rainwise IP-100,2015-03-28 17:45:00,
2015-03-28 12:50:00,43.4,28.0,27.79,SE,135,19.0,22.0,52,0.00,,,0.00,Rainwise IP-100,2015-03-28 17:50:00,
2015-03-28 12:55:00,43.3,26.0,27.79,SE,135,19.0,20.0,51,0.00,,,0.00,Rainwise IP-100,2015-03-28 17:55:00,
2015-03-28 13:00:00,43.2,26.0,27.79,SE,135,18.0,21.0,49,0.00,,,0.00,Rainwise IP-100,2015-03-28 18:00:00,
2015-03-28 13:05:00,43.4,26.0,27.78,ESE,112,17.0,20.0,50,0.00,,,0.00,Rainwise IP-100,2015-03-28 18:05:00,
2015-03-28 13:10:00,43.9,26.0,27.79,SE,135,13.0,22.0,49,0.00,,,0.00,Rainwise IP-100,2015-03-28 18:10:00,
2015-03-28 13:15:00,43.9,28.0,27.79,SSE,157,17.0,19.0,51,0.00,,,0.00,Rainwise IP-100,2015-03-28 18:15:00,
2015-03-28 13:20:00,44.0,28.0,27.78,SSE,157,12.0,22.0,50,0.00,,,0.00,Rainwise IP-100,2015-03-28 18:20:00,
2015-03-28 13:26:00,44.1,28.0,27.78,SE,135,6.0,21.0,51,0.00,,,0.00,Rainwise IP-100,2015-03-28 18:26:00,
2015-03-28 13:31:00,44.8,28.0,27.78,South,180,16.0,21.0,49,0.00,,,0.00,Rainwise IP-100,2015-03-28 18:31:00,
2015-03-28 13:36:00,44.7,28.0,27.78,SE,135,16.0,22.0,49,0.00,,,0.00,Rainwise IP-100,2015-03-28 18:36:00,
2015-03-28 13:41:00,45.2,28.0,27.78,SE,135,8.0,25.0,50,0.00,,,0.00,Rainwise IP-100,2015-03-28 18:41:00,
2015-03-28 13:46:00,45.4,28.0,27.78,SE,135,16.0,22.0,49,0.00,,,0.00,Rainwise IP-100,2015-03-28 18:46:00,
2015-03-28 13:51:00,45.4,28.0,27.77,SSE,157,21.0,24.0,51,0.00,,,0.00,Rainwise IP-100,2015-03-28 18:51:00,
2015-03-28 13:56:00,45.4,28.0,27.77,SE,135,16.0,22.0,49,0.00,,,0.00,Rainwise IP-100,2015-03-28 18:56:00,
2015-03-28 14:01:00,45.2,26.0,27.77,ESE,112,11.0,24.0,48,0.00,,,0.00,Rainwise IP-100,2015-03-28 19:01:00,
2015-03-28 14:06:00,45.4,26.0,27.77,SE,135,17.0,24.0,48,0.00,,,0.00,Rainwise IP-100,2015-03-28 19:06:00,